Regional Weather Roundup
Issued by NWS

Home | Current Version | Previous Version | Graphics & Text | Print | Product List | Glossary On
Versions: 1 2 3 4 5 6 7 8 9 10 11 12 13 14 15 16 17 18 19 20 21 22 23 24 25 26 27 28 29 30 31 32 33 34 35 36 37 38 39 40 41 42 43 44 45 46 47 48 49 50
000
ASUS43 KLMK 201810
RWRKY
KENTUCKY REGIONAL WEATHER ROUNDUP
NATIONAL WEATHER SERVICE LOUISVILLE KY
200 PM EDT MON OCT 20 2014

NOTE "FAIR" INDICATES FEW OR NO CLOUDS BELOW 12,000 FEET
WITH NO SIGNIFICANT WEATHER AND/OR OBSTRUCTIONS TO VISIBILITY.

KYZ001>023-026-027-061>063-070>075-201900-
WESTERN AND SOUTH CENTRAL KENTUCKY

CITY           SKY/WX    TMP DP  RH WIND       PRES   REMARKS
PADUCAH        SUNNY     70  52  52 SW13      29.98F
HENDERSON      MOSUNNY   70  50  49 SW14      29.95F
OWENSBORO      MOSUNNY   67  53  60 SW15      29.95F
HOPKINSVILLE   SUNNY     67  51  56 SW14      30.00F
BOWLING GREEN  MOSUNNY   64  47  53 SW13      30.01F
GLASGOW        PTSUNNY   64  49  59 SW12      30.00F
$$

KYZ024-025-028>034-038-045-046-053-201900-
NORTH CENTRAL KENTUCKY

CITY           SKY/WX    TMP DP  RH WIND       PRES   REMARKS
LOUISVILLE/SDF PTSUNNY   62  50  64 S14G23    29.93F
LOUISVILLE/LOU CLOUDY    59  51  75 S8        29.94F
FORT KNOX      PTSUNNY   66  50  55 S14       29.93F
$$

KYZ035>037-039>044-047>052-055>060-089>105-201900-
NORTHEAST KENTUCKY

CITY           SKY/WX    TMP DP  RH WIND       PRES   REMARKS
LEXINGTON      PTSUNNY   59  49  69 SW16      29.97F
COVINGTON      PTSUNNY   61  49  64 S15G25    29.90F
FRANKFORT      PTSUNNY   60  50  69 SW10      29.94F
$$

KYZ054-064>069-076>088-106>120-201900-
SOUTHEAST KENTUCKY

CITY           SKY/WX    TMP DP  RH WIND       PRES   REMARKS
JACKSON        LGT RAIN  53  48  83 VRB5      29.99F
LONDON         CLOUDY    58  49  72 W8        30.01F
SOMERSET       CLOUDY    55  45  67 SW6       30.02F
MIDDLESBORO    PTSUNNY   63  48  57 S8        30.02F
MONTICELLO     CLOUDY    59  50  72 S8        30.01F
$$




USA.gov is the U.S. government's official web portal to all federal, state and local government web resources and services.